LEMUR-2-DJARA

Last updated on Sat Jan 08 2022 00:02:04 GMT+0000 (Coordinated Universal Time)

1 46926U 98067RW 22004.45615545 .07498914 12263-4 95904-3 0 9990 2 46926 51.6285 23.0087 0001611 88.6404 271.4805 16.35071279 66511

Satellite not in orbit